Overview Statistics Trail Chart Weather Telemetry Raw packets
 

This is the latest recevied weather packets stored in our database for station/object KB0BS-13. If no packets are shown the sender has not sent any weather packets the latest 10 day(s).

<< 60 61 62 63 64 65 66 >>
Time Temp. Humidity Pressure Rain* Wind** Luminosity Snow
1777291652 3.89° C 88% 1021 hPa 0 mm - 141 W/m² -
1777291350 3.33° C 89% 1020.8 hPa 0 mm - 62 W/m² -
1777291046 3.33° C 89% 1021 hPa 0 mm - 50 W/m² -
1777290743 3.89° C 88% 1020.9 hPa 0 mm - 55 W/m² -
1777290440 3.33° C 88% 1021 hPa 0 mm - 47 W/m² -
1777290135 3.33° C 88% 1021.1 hPa 0 mm - 48 W/m² -
1777289833 3.33° C 88% 1021.1 hPa 0 mm - 49 W/m² -
1777289528 3.33° C 88% 1021.3 hPa 0 mm - 48 W/m² -
1777289218 3.33° C 90% 1021.7 hPa 0 mm - 51 W/m² -
1777288916 2.78° C 90% 1021.6 hPa 0 mm - 48 W/m² -
1777288613 2.78° C 89% 1021.6 hPa 0 mm - 44 W/m² -
1777288309 2.78° C 90% 1021.9 hPa 0 mm - 40 W/m² -
1777288005 2.78° C 90% 1021.7 hPa 0 mm - 35 W/m² -
1777287703 2.22° C 90% 1021.7 hPa 0 mm - 28 W/m² -
1777287398 2.22° C 90% 1021.9 hPa 0 mm - 23 W/m² -
1777287094 2.22° C 91% 1021.7 hPa 0 mm - 17 W/m² -
1777286792 2.22° C 91% 1022 hPa 0 mm - 13 W/m² -
1777286489 2.22° C 91% 1021.7 hPa 0 mm - 9 W/m² -
1777286186 2.22° C 90% 1021.8 hPa 0 mm - 6 W/m² -
1777285884 1.67° C 91% 1021.7 hPa 0 mm - 4 W/m² -
1777285580 1.67° C 91% 1021.9 hPa 0 mm - 2 W/m² -
1777285278 1.67° C 91% 1021.8 hPa 0 mm - 1 W/m² -
1777284969 1.67° C 91% 1021.9 hPa 0 mm - 0 W/m² -
1777284666 1.67° C 91% 1021.9 hPa 0 mm - 0 W/m² -
1777284363 1.67° C 90% 1022 hPa 0 mm - 0 W/m² -

* Rain latest hour (hover to see other rain measurements)
** Current wind speed in m/s (hover to see current wind gust speed)